EW9119 Weather Reports


time (UTC)temp
C
wind
direction
speed
KPH
gust
KPH
rain 1hr
cm
rain 24hr
cm
rain mn
cm
humidity
%
barometer
mb
20260504223047 23 81 0.0 1.6 0.00 0.00 0.00 42 1011.1
20260504221544 23 186 0.0 1.6 0.00 0.00 0.00 41 1011.1
20260504220046 23 36 0.0 0.0 0.00 0.00 0.00 40 1011.1
20260504214544 23 346 0.0 0.0 0.00 0.00 0.00 39 1011.2
20260504213030 23 355 0.0 0.0 0.00 0.00 0.00 39 1011.2
20260504211526 24 308 0.0 0.0 0.00 0.00 0.00 39 1011.1
20260504210024 24 40 0.0 0.0 0.00 0.00 0.00 42 1011.2
20260504204517 24 329 0.0 0.0 0.00 0.00 0.00 40 1011.2
20260504203014 23 311 0.0 3.2 0.00 0.00 0.00 40 1011.4
20260504201508 23 74 0.0 0.0 0.00 0.00 0.00 40 1011.5
20260504200004 23 316 0.0 0.0 0.00 0.00 0.00 41 1011.7
20260504194559 23 327 0.0 1.6 0.00 0.00 0.00 42 1012.0
20260504193055 23 323 0.0 0.0 0.00 0.00 0.00 40 1012.1
20260504191556 23 13 0.0 0.0 0.00 0.00 0.00 43 1012.4
20260504190054 23 305 0.0 0.0 0.00 0.00 0.00 42 1012.7
20260504184553 23 320 0.0 0.0 0.00 0.00 0.00 41 1012.8
20260504183044 23 297 0.0 1.6 0.00 0.00 0.00 39 1013.1
20260504181537 23 287 0.0 3.2 0.00 0.00 0.00 38 1013.2
20260504180029 24 213 0.0 0.0 0.00 0.00 0.00 42 1013.2
20260504174524 24 166 0.0 1.6 0.00 0.00 0.00 41 1013.3
20260504173018 23 325 0.0 0.0 0.00 0.00 0.00 41 1013.4
20260504171514 22 15 0.0 0.0 0.00 0.00 0.00 42 1013.7
20260504081545 5 227 0.0 0.0 0.00 0.00 0.00 29 1015.3
20260504050017 7 227 0.0 0.0 0.00 0.00 0.00 58 1015.6
20260504044521 7 227 0.0 0.0 0.00 0.00 0.00 57 1015.6
20260504043013 7 227 0.0 0.0 0.00 0.00 0.00 60 1015.4
20260504041510 7 227 0.0 0.0 0.00 0.00 0.00 61 1015.1
20260504040008 8 227 0.0 0.0 0.00 0.00 0.00 61 1015.2
20260504034504 8 227 0.0 0.0 0.00 0.00 0.00 60 1015.3
20260504033128 8 227 0.0 0.0 0.00 0.00 0.00 61 1015.3
20260504031558 8 227 0.0 0.0 0.00 0.00 0.00 63 1015.3
20260504030051 8 227 0.0 0.0 0.00 0.00 0.00 64 1015.2
20260504024547 8 227 0.0 0.0 0.00 0.00 0.00 65 1015.4
20260504023059 8 227 0.0 0.0 0.00 0.00 0.00 65 1015.3
20260504021542 8 227 0.0 0.0 0.00 0.00 0.00 64 1015.1
20260504020040 9 227 0.0 0.0 0.00 0.00 0.00 64 1014.9
20260504014547 10 227 0.0 0.0 0.00 0.00 0.00 63 1014.7
20260504013041 10 227 0.0 0.0 0.00 0.00 0.00 62 1014.5
20260504011529 11 227 0.0 0.0 0.00 0.00 0.00 60 1014.5
20260504010028 11 227 0.0 0.0 0.00 0.00 0.00 57 1014.5
20260504004521 12 227 0.0 0.0 0.00 0.00 0.00 55 1014.4
20260504003026 13 227 0.0 0.0 0.00 0.00 0.00 52 1014.3
20260504001515 13 227 0.0 0.0 0.00 0.00 0.00 51 1014.2
20260504000011 14 11 0.0 0.0 0.00 0.00 0.00 47 1014.1
20260503234520 15 306 0.0 0.0 0.00 0.00 0.00 44 1014.1
20260503233003 15 34 0.0 0.0 0.00 0.00 0.00 42 1014.1
20260503231559 16 19 0.0 0.0 0.00 0.00 0.00 43 1014.1
20260503230100 16 66 0.0 0.0 0.00 0.00 0.00 41 1014.0
20260503224550 16 309 0.0 0.0 0.00 0.00 0.00 37 1014.1